Regional Weather Roundup
Issued by NWS

Current Version | Previous Version | Text Only | Print | Product List | Glossary On
Versions: 1 2 3 4 5 6 7 8 9 10 11 12 13 14 15 16 17 18 19 20 21 22 23 24 25 26 27 28 29 30 31 32 33 34 35 36 37 38 39 40 41 42 43 44 45 46 47 48 49 50
000
ASUS43 KIND 022109
RWRIN

WEATHER ROUNDUP FOR INDIANA
NATIONAL WEATHER SERVICE INDIANAPOLIS IN
400 PM EST FRI DEC 02 2016

NOTE: "FAIR" INDICATES FEW OR NO CLOUDS BELOW 12,000 FEET WITH NO
SIGNIFICANT WEATHER AND/OR OBSTRUCTIONS TO VISIBILITY.

* - STATION DOES NOT REPORT WEATHER SUCH AS PRECIPITATION OR FOG.

+ - STATION NOT QUALITY CONTROLLED BY THE NATIONAL WEATHER SERVICE.
    USE DATA WITH CAUTION...ESPECIALLY DEWPOINT AND RELATIVE
    HUMIDITY OBSERVATIONS.

INZ001>003-010>013-019-020-022200-
NORTHWEST INDIANA

CITY           SKY/WX    TMP DP  RH WIND       PRES   REMARKS
GARY /AIRPORT/ CLOUDY    41  32  70 W10       30.21R
KNOX *+        CLOUDY    37  14  38 W8        30.20R
LA PORTE +     CLOUDY    40  35  84 NW9       30.20R
MICHIGAN CITY+ CLOUDY    37  30  75 N9        30.21R
MONTICELLO +   CLOUDY    39  27  62 W5        30.22R
RENSSELAER +     N/A     39  34  81 W12       30.22R
VALPARAISO     CLOUDY    40  30  67 NW6       30.21R

$$

LMZ046-743>745-022200-
SOUTHERN LAKE MICHIGAN

STATION/POSITION TIME  TEMP    WIND        PRES    WAVE
                       AIR SEA DIR/SP/G            HT
                 (UTC) (F)     (DEG/KT/KT) (MB)    (FT)
BURNS HARBOR     2040   40     320/ 10/ 13 1023.0R
MICHIGAN CITY    2040   39     300/ 13/ 17   N/A

$$

INZ004-005-014>016-021>024-022200-
NORTH CENTRAL INDIANA

CITY           SKY/WX    TMP DP  RH WIND       PRES   REMARKS
ELKHART          N/A     37  27  65 NW7       30.19R
GOSHEN         CLOUDY    38  27  64 NW13      30.18R
LOGANSPORT +   CLOUDY    37  32  81 W5        30.22R
PERU/GRISSOM   CLOUDY    38  34  87 W9        30.19R
ROCHESTER +    CLOUDY    41  34  75 W9        30.20R
SOUTH BEND     CLOUDY    37  28  70 NW9       30.19R
WARSAW +       CLOUDY    36  32  87 W8        30.19R

$$

INZ006>009-017-018-025>027-022200-
NORTHEAST INDIANA

CITY           SKY/WX    TMP DP  RH WIND       PRES   REMARKS
ANGOLA *+      CLOUDY    37  28  70 NW12      30.15R
AUBURN +       CLOUDY    37  32  81 W9        30.17R
FORT WAYNE     CLOUDY    39  30  70 W13       30.18R
HUNTINGTON +   CLOUDY    38  31  75 W7        30.19R
KENDALLVILLE + CLOUDY    36  34  90 NW8       30.17R

$$

INZ028-029-035-036-043>045-051>053-022200-
WEST CENTRAL INDIANA

CITY           SKY/WX    TMP DP  RH WIND       PRES   REMARKS
CRAWFORDSVL +  CLOUDY    37  33  84 W8        30.24R
GREENCASTLE +  CLOUDY    37  34  87 W5        30.25R
LAFAYETTE      CLOUDY    39  33  79 W8        30.23R
TERRE HAUTE    CLOUDY    41  30  65 W7        30.26R

$$

INZ030>032-037>040-046>048-054>057-064-065-022200-
CENTRAL INDIANA

CITY           SKY/WX    TMP DP  RH WIND       PRES   REMARKS
ANDERSON       CLOUDY    37  30  75 W12       30.21R
CP ATTERBURY + CLOUDY    41  30  65 W3        30.26R
COLUMBUS       CLOUDY    39  30  70 NW9       30.26R
FISHERS *+     CLOUDY    37  32  81 W8G17     30.23R
FRANKFORT +    CLOUDY    41  35  77 NW10      30.24R
GREENWOOD *+   CLOUDY    40  32  74 W8        30.24R
INDIANAPOLIS   CLOUDY    40  32  73 W9        30.24R
-EAGLE CREEK   CLOUDY    40  31  70 W8        30.23R
KOKOMO +       CLOUDY    37  33  85 W9        30.22R
MARION +       CLOUDY    36  33  91 W10       30.21R
MT COMFORT *+  CLOUDY    39  30  70 NW10      30.23R
SHELBYVILLE    CLOUDY    41  31  67 W9        30.23R
ZIONSVILLE +   CLOUDY    38  32  78 W12G17    30.23R

$$

INZ033-034-041-042-049-050-058-059-022200-
EAST CENTRAL INDIANA

CITY           SKY/WX    TMP DP  RH WIND       PRES   REMARKS
MUNCIE         CLOUDY    40  30  67 W10       30.20R

$$

INZ060-061-067>069-081>083-085>088-022200-
SOUTHWEST INDIANA

CITY           SKY/WX    TMP DP  RH WIND       PRES   REMARKS
EVANSVILLE     SUNNY     47  30  51 NW9       30.28R
HUNTINGBURG *+ SUNNY     43  30  61 N5        30.27R
WASHINGTON +   CLOUDY    42  32  68 W8        30.27R

$$

INZ062-063-066-070>080-084-089>092-022200-
SOUTH CENTRAL AND SOUTHEAST INDIANA

CITY           SKY/WX    TMP DP  RH WIND       PRES   REMARKS
BLOOMINGTON    CLOUDY    41  29  62 VRB5      30.25R
MADISON *+     CLOUDY    41  28  60 W3        30.27R
NORTH VERNON + CLOUDY    41  36  81 W6        30.25R
SEYMOUR +      CLOUDY    43  30  61 W9        30.26R

$$





USA.gov is the U.S. government's official web portal to all federal, state and local government web resources and services.